TimeEST,TemperatureF,Dew PointF,Humidity,Sea Level PressureIn,VisibilityMPH,Wind Direction,Wind SpeedMPH,Gust SpeedMPH,PrecipitationIn,Events,Conditions,WindDirDegrees,DateUTC
12:14 AM,44.4,42.1,91,30.10,3.0,SSW,9.2,-,N/A,,Clear,200,2012-11-22 05:14:00
12:34 AM,44.2,42.1,92,30.10,3.0,SSW,10.4,-,N/A,,Clear,210,2012-11-22 05:34:00
12:54 AM,44.6,42.3,91,30.09,3.0,SSW,10.4,-,N/A,,Clear,210,2012-11-22 05:54:00
1:14 AM,44.8,42.4,91,30.09,3.0,SSW,12.7,-,N/A,,Clear,210,2012-11-22 06:14:00
1:34 AM,44.6,42.4,92,30.08,3.0,SSW,11.5,-,N/A,,Clear,200,2012-11-22 06:34:00
1:54 AM,44.8,42.4,91,30.09,3.0,SW,10.4,-,N/A,,Clear,220,2012-11-22 06:54:00
2:14 AM,43.9,41.9,93,30.08,2.5,SSW,9.2,-,N/A,,Clear,200,2012-11-22 07:14:00
2:34 AM,43.9,41.9,93,30.08,2.5,SSW,9.2,-,N/A,,Clear,200,2012-11-22 07:34:00
2:54 AM,44.1,42.3,93,30.08,2.5,SW,6.9,-,N/A,,Clear,220,2012-11-22 07:54:00
3:14 AM,43.0,41.2,93,30.09,2.5,SW,4.6,-,N/A,,Clear,220,2012-11-22 08:14:00
3:34 AM,41.9,40.3,94,30.08,2.0,SSW,5.8,-,N/A,,Clear,210,2012-11-22 08:34:00
3:54 AM,41.7,40.3,95,30.08,2.0,SSW,6.9,-,N/A,,Clear,210,2012-11-22 08:54:00
4:14 AM,42.1,41.0,96,30.07,2.5,SSW,6.9,-,N/A,,Clear,200,2012-11-22 09:14:00
4:34 AM,41.9,40.5,95,30.07,2.0,SSW,5.8,-,N/A,,Clear,210,2012-11-22 09:34:00
4:54 AM,41.9,40.5,95,30.07,2.5,SSW,5.8,-,N/A,,Clear,210,2012-11-22 09:54:00
5:14 AM,42.1,40.8,95,30.07,2.5,SSW,8.1,-,N/A,,Clear,210,2012-11-22 10:14:00
5:34 AM,43.5,41.5,93,30.07,2.5,SSW,9.2,-,N/A,,Clear,210,2012-11-22 10:34:00
5:54 AM,43.9,41.9,93,30.06,2.5,SSW,11.5,-,N/A,,Clear,210,2012-11-22 10:54:00
6:14 AM,43.5,41.5,93,30.05,2.5,SSW,9.2,-,N/A,,Clear,210,2012-11-22 11:14:00
6:34 AM,43.3,41.5,93,30.05,2.5,SSW,9.2,-,N/A,,Clear,200,2012-11-22 11:34:00
6:54 AM,44.4,42.4,93,30.05,3.0,SSW,11.5,-,N/A,,Clear,210,2012-11-22 11:54:00
7:14 AM,44.2,42.1,92,30.05,3.0,SSW,10.4,-,N/A,,Clear,210,2012-11-22 12:14:00
7:34 AM,44.1,41.9,92,30.05,3.0,SSW,9.2,-,N/A,,Clear,210,2012-11-22 12:34:00
7:54 AM,44.1,41.9,92,30.04,2.0,SSW,9.2,-,N/A,,Clear,200,2012-11-22 12:54:00
8:14 AM,44.2,42.1,92,30.04,2.0,SSW,9.2,-,N/A,,Clear,200,2012-11-22 13:14:00
8:34 AM,45.3,42.8,91,30.03,2.5,SSW,11.5,-,N/A,,Clear,200,2012-11-22 13:34:00
8:54 AM,46.8,43.5,88,30.03,3.0,SSW,12.7,-,N/A,,Clear,200,2012-11-22 13:54:00
9:14 AM,48.2,44.2,86,30.02,3.0,SSW,11.5,16.1,N/A,,Clear,210,2012-11-22 14:14:00
9:34 AM,49.3,44.8,84,30.02,4.0,SSW,13.8,-,N/A,,Clear,210,2012-11-22 14:34:00
9:54 AM,50.2,45.5,84,30.02,4.0,SSW,12.7,-,N/A,,Clear,210,2012-11-22 14:54:00
10:14 AM,51.8,45.3,79,30.02,5.0,SSW,13.8,17.3,N/A,,Haze,210,2012-11-22 15:14:00
10:34 AM,52.9,45.7,77,30.02,5.0,SSW,11.5,-,N/A,,Haze,210,2012-11-22 15:34:00
10:54 AM,54.7,45.7,72,30.01,7.0,SSW,12.7,23.0,N/A,,Clear,200,2012-11-22 15:54:00
11:14 AM,55.6,45.3,68,30.01,7.0,SSW,13.8,20.7,N/A,,Clear,210,2012-11-22 16:14:00
11:34 AM,56.8,44.6,64,29.99,7.0,SW,15.0,23.0,N/A,,Clear,220,2012-11-22 16:34:00
11:54 AM,57.6,44.6,62,29.99,10.0,SW,12.7,23.0,N/A,,Clear,220,2012-11-22 16:54:00
12:14 PM,58.3,43.7,58,29.98,10.0,SW,23.0,31.1,N/A,,Clear,220,2012-11-22 17:14:00
12:34 PM,59.0,42.4,54,29.97,10.0,SW,20.7,32.2,N/A,,Clear,220,2012-11-22 17:34:00
12:54 PM,58.8,42.3,54,29.95,10.0,SW,21.9,29.9,N/A,,Clear,220,2012-11-22 17:54:00
1:14 PM,59.4,43.0,55,29.93,10.0,SSW,19.6,24.2,N/A,,Clear,200,2012-11-22 18:14:00
1:34 PM,59.4,42.4,54,29.92,10.0,SSW,19.6,25.3,N/A,,Clear,210,2012-11-22 18:34:00
1:54 PM,60.3,41.7,50,29.92,10.0,SSW,20.7,24.2,N/A,,Clear,210,2012-11-22 18:54:00
2:14 PM,60.6,41.0,48,29.91,10.0,SSW,16.1,25.3,N/A,,Clear,210,2012-11-22 19:14:00
2:34 PM,61.3,40.3,46,29.90,10.0,SSW,17.3,31.1,N/A,,Clear,200,2012-11-22 19:34:00
2:54 PM,60.8,40.1,46,29.88,10.0,SSW,17.3,26.5,N/A,,Clear,200,2012-11-22 19:54:00
3:14 PM,60.4,39.9,47,29.88,10.0,SSW,23.0,26.5,N/A,,Clear,210,2012-11-22 20:14:00
3:34 PM,59.9,40.8,49,29.87,10.0,SSW,17.3,23.0,N/A,,Clear,200,2012-11-22 20:34:00
3:54 PM,59.2,40.5,50,29.87,7.0,SSW,16.1,20.7,N/A,,Scattered Clouds,200,2012-11-22 20:54:00
4:14 PM,58.3,40.6,52,29.87,10.0,South,12.7,19.6,N/A,,Scattered Clouds,190,2012-11-22 21:14:00
4:34 PM,58.1,40.6,52,29.85,10.0,South,17.3,20.7,N/A,,Scattered Clouds,180,2012-11-22 21:34:00
4:54 PM,58.1,40.3,52,29.85,10.0,South,17.3,25.3,N/A,,Scattered Clouds,190,2012-11-22 21:54:00
5:14 PM,57.7,39.7,51,29.84,10.0,South,18.4,23.0,N/A,,Overcast,190,2012-11-22 22:14:00
5:34 PM,57.6,39.7,51,29.83,10.0,South,16.1,24.2,N/A,,Overcast,180,2012-11-22 22:34:00
5:54 PM,57.6,40.1,52,29.83,10.0,South,16.1,25.3,N/A,,Overcast,190,2012-11-22 22:54:00
6:14 PM,57.2,40.3,53,29.82,10.0,South,17.3,24.2,N/A,,Overcast,190,2012-11-22 23:14:00
6:34 PM,57.2,40.3,53,29.81,10.0,South,19.6,26.5,N/A,,Scattered Clouds,190,2012-11-22 23:34:00
6:54 PM,57.2,40.5,54,29.80,10.0,South,23.0,28.8,N/A,,Mostly Cloudy,190,2012-11-22 23:54:00
7:14 PM,57.4,40.5,53,29.82,10.0,SSW,23.0,28.8,N/A,,Overcast,210,2012-11-23 00:14:00
7:34 PM,57.7,40.3,52,29.81,10.0,SSW,20.7,31.1,N/A,,Overcast,200,2012-11-23 00:34:00
7:54 PM,56.3,43.0,61,29.81,10.0,SSW,20.7,31.1,N/A,,Drizzle,210,2012-11-23 00:54:00
8:14 PM,53.1,46.4,78,29.82,5.0,SSW,21.9,28.8,0.04,Rain,Heavy Rain,210,2012-11-23 01:14:00
8:34 PM,52.2,46.8,82,29.82,7.0,SSW,19.6,25.3,0.11,Rain,Light Rain,210,2012-11-23 01:34:00
8:54 PM,52.3,46.6,81,29.81,10.0,SSW,16.1,24.2,0.11,,Overcast,210,2012-11-23 01:54:00
9:14 PM,52.7,45.9,78,29.79,10.0,SSW,13.8,24.2,N/A,Rain,Rain,200,2012-11-23 02:14:00
9:34 PM,52.9,45.5,76,29.79,10.0,SSW,19.6,25.3,N/A,,Overcast,210,2012-11-23 02:34:00
9:54 PM,52.7,45.7,77,29.79,10.0,SSW,17.3,25.3,N/A,,Light Drizzle,200,2012-11-23 02:54:00
10:14 PM,52.2,45.5,78,29.78,10.0,SSW,15.0,-,N/A,,Drizzle,210,2012-11-23 03:14:00
10:34 PM,52.0,45.5,79,29.77,10.0,SSW,16.1,19.6,N/A,,Overcast,200,2012-11-23 03:34:00
10:54 PM,52.5,45.1,76,29.75,10.0,SSW,17.3,23.0,N/A,,Overcast,200,2012-11-23 03:54:00
11:14 PM,52.7,44.8,74,29.73,10.0,SSW,17.3,23.0,N/A,,Overcast,200,2012-11-23 04:14:00
11:34 PM,53.1,44.6,73,29.72,10.0,SSW,15.0,23.0,N/A,,Overcast,210,2012-11-23 04:34:00
11:54 PM,53.6,44.8,72,29.72,10.0,SSW,15.0,21.9,N/A,,Overcast,210,2012-11-23 04:54:00